Tracking 31027 objects as of 19-Jul-2025
HD Live streaming from Space Station
objects crossing your sky now

ARIANE 5 R/B

Track ARIANE 5 R/B now!


NORAD ID: 36832
Int'l Code: 2010-037C
Perigee: 298.9 km
Apogee: 31,514.4 km
Inclination: 2.0 °
Period: 551.5 minutes
Semi major axis: 22277 km
RCS: 25.4404 m2 (large)
Launch date: August 4, 2010
Source: France (FR)
Launch site: FRENCH GUIANA (FRGUI)

Note: This is a ROCKET BODY
Your satellite tracking list
FLOCK 3S 1
Track 1 satellite(s)




NASA's NSSDC Master Catalog

Two Line Element Set (TLE):
1 36832U 10037C   25199.33420080  .00001317  00000-0  59379-3 0  9997
2 36832   2.0151 138.2078 7006019  64.1044 350.0818  2.61095722133404
Source of the keplerian elements: AFSPC